COSMOS 1275 DEB, 12724

Orbit data source: Space-Track

COSMOS 1275 DEB, 12724 is space debris in LEO originally from a launch on Thu, 04 Jun 1981 UTC launched from the Plesetsk Missile And Space Complex (PKMTR). Debris objects in space refer to the collection of defunct objects orbiting the Earth. Examples of debris include non-operational satellites, rocket bodies, and fragments generated from explosions, collisions, or faulty payload assembly.

Loading next visibility...
Identifier
12724, 1981-053BR
Orbit
LEO
Country
Flag of CISCIS
Related business
Manufacturer
Unknown
Mission
Spacecraft
Bus & Motor
Unknown
Mass
Unknown
Launch date (UTC)
1981-06-04 (45 years ago)
Launch vehicle
Unknown
Launch site
Plesetsk Missile And Space Complex (PKMTR)
Object type
Payload
Rocket body
Debris
Shape & HBR
Unknown shape, 0.1 m
Radar Cross Section
Small (<0.1 m²)

Expand to show TLE details & history
Last TLE update: 10 hours ago

TLE from 10 hours ago
0 COSMOS 1275 DEB
1 12724U 81053BR  26119.50839104  .00001766  00000-0  10173-2 0  9996
2 12724  82.9305 294.4574 0018566  13.7345  40.4688 14.08570574271156
Epoch: 2026-04-29T12:12Z
TLE epoch observation values (Epoch: 2026-04-29T12:12:04.985Z)
Latitude
53.83815°
Longitude
-96.31431°
Altitude
862.897 km
Speed
7.431 km/s
True Right ascension
20h 16m 41s
True Declination
53° 40' 36"
Sunlit
Object was in daylight at epoch
Visualization orbit readout
Latitude
Unknown
Longitude
Unknown
Altitude
Unknown
Speed
Unknown
Apparent Right ascension
Unknown
Apparent Declination
Unknown
Sunlit
N/A
Visualization observer readout
Local Sidereal Time
05:45:25
Azimuth
Unknown
Elevation
Unknown
Doppler factor
Unknown
Orbital elements
Apogee altitude
874.811 km
Perigee altitude
847.929 km
Semi-major axis
7,239.507 km
Eccentricity
0.00186
Inclination
82.9305°
RAAN
294.4574°
Arg. of periapsis
13.7345°
True anomaly
40.60713°
Mean anomaly
40.4688°
Eccentric anomaly
40.53794°
Mean motion
3.52354 °/min
Orbital period
102.17 mins
BSTAR
0.0010173
Loading maneuver chart data...
Computing Atmospheric mass density...
Loading historical data...
Loading historical data...
Loading historical data...
Loading historical data...
Loading historical data...
Loading historical data...
Loading historical data...

Documentation

Showing up to 5 results
|